Flag for Canada Weather past 2 weeks in Sidney, British Columbia, Canada

61 °F

Broken clouds.

Feels Like: 61 °F
Forecast: 53 / 62 °F
Wind: 2 mph from North

Location: Victoria Int. Airportb. C.

Current Time: Oct 9, 2015 at 1:13:03 PM

Latest Report: Oct 9, 2015 at 12:00 PM

Visibility: 30 mi

Pressure: 29.86 "Hg

Humidity: 83%

Dew point: 55 °F

Location of SidneyLocation

Historic Weather in Sidney — Graph


Sidney temperature yesterday

Maximum temperature yesterday: 61 °F (at 3:00 PM)
Minimum temperature yesterday: 54 °F (at 11:00 PM)
Average temperature yesterday: 58 °F

Past Weeks' High & Low Weather Summary

High68 °F (Oct 3, 3:00 PM)100% (Sep 25, 12:00 AM)30.24 "Hg (Sep 25, 12:00 AM)
Low41 °F (Sep 27, 5:00 AM)33% (Oct 3, 3:00 PM)29.83 "Hg (Oct 9, 8:00 AM)
Average54 °F84%30.04 "Hg
* Reported Sep 24 12:00 Noon — Oct 9 12:00 Noon, Sidney, Weather by CustomWeather, © 2015

Note: Actual official high and low records may vary slightly from our data, if they occured in-between our weather recording intervals... More about our weather records


Sidney weather history for previous 24 hours

Time TempWeatherWind HumidityBarometerVisibility
12:00 PM
Fri, Oct 9
61 °FBroken clouds.2 mph83%29.86 "Hg30 mi
11:00 AM59 °FPartly sunny.3 mph94%29.84 "Hg20 mi
10:00 AM57 °FPartly sunny.3 mph100%29.85 "Hg15 mi
9:00 AM57 °FLight rain. Partly sunny.2 mph94%29.83 "Hg10 mi
8:45 AM57 °FLight rain. Mostly cloudy.3 mph94%29.83 "Hg8 mi
8:00 AM55 °FPassing clouds.2 mph100%29.83 "Hg15 mi
7:00 AM55 °FFog.7 mph100%29.84 "Hg1 mi
6:00 AM55 °FFog.3 mph100%29.85 "Hg1 mi
5:00 AM55 °FFog.3 mph100%29.88 "Hg1 mi
4:00 AM55 °FFog.3 mph100%29.89 "Hg1 mi
3:00 AM55 °FFog.5 mph100%29.93 "Hg1 mi
2:45 AM55 °FFog.5 mph100%29.93 "Hg1 mi
2:00 AM55 °FFog.2 mph94%29.93 "Hg1 mi
1:00 AM55 °FFog.No wind94%29.94 "Hg1 mi
12:00 AM55 °FFog.No wind94%29.97 "Hg1 mi
11:00 PM
Thu, Oct 8
54 °FFog.3 mph100%29.98 "Hg1 mi
10:00 PM55 °FLight rain. Fog.2 mph94%30.00 "Hg2 mi
9:00 PM55 °FFog.3 mph94%30.01 "Hg7 mi
8:00 PM55 °FFog.3 mph100%30.04 "Hg8 mi
7:00 PM55 °FFog.6 mph100%30.02 "Hg10 mi
6:00 PM59 °FPartly sunny.5 mph94%30.04 "Hg20 mi
5:00 PM61 °FPartly sunny.2 mph88%30.05 "Hg20 mi
4:00 PM59 °FOvercast.3 mph94%30.08 "Hg15 mi
3:00 PM61 °FOvercast.5 mph88%30.08 "Hg15 mi
2:00 PM59 °FMore clouds than sun.2 mph94%30.10 "Hg12 mi
Weather by CustomWeather, © 2015

See weather overviewHow to use our weather pages